EHI
0 0 0 0 0 0 0 0 0 0 0 0 0 0 0 0 0 0 0 0 0 0 1 2 3 3 1 0 0 0 0 0 0 1 2 3 3 2 1 0 1 0 0
0 0 0 0 0 0 0 0 0 0 0 0 0 0 0 0 0 0 0 0 0 0 0 1 2 2 2 1 0 0 0 0 0 1 3 3 3 3 1 1 1 1 0
0 0 0 0 0 0 0 0 0 0 0 0 0 0 0 0 0 0 0 0 0 0 0 0 1 1 1 1 0 0 0 1 1 2 3 3 3 3 2 1 1 1 0
0 0 0 0 0 0 0 0 0 0 0 0 0 0 0 0 0 0 0 0 0 0 0 0 0 0 0 0 0 1 1 2 3 3 3 3 3 2 1 0 0 0 0
0 0 0 0 0 0 0 0 0 0 0 0 0 0 0 0 0 0 0 0 0 0 0 0 0 0 0 0 1 2 3 3 3 3 3 3 2 1 0 0 0 0 0
0 0 0 0 0 0 0 0 0 0 0 0 0 0 0 0 0 0 0 0 0 0 0 0 0 0 0 0 1 2 3 3 3 3 2 1 1 0 0 0 0 0 0
0 0 0 0 0 0 0 0 0 0 0 0 0 0 0 0 0 0 0 0 0 0 0 0 0 0 0 0 0 1 1 2 2 2 1 0 0 0 0 0 0 0 0
0 0 0 0 0 0 0 0 0 0 0 0 0 0 0 0 0 0 0 0 0 0 0 0 0 0 0 0 0 0 0 1 1 1 0 0 0 0 0 0 0 0 0
0 0 0 0 0 0 0 0 0 0 0 0 0 0 0 0 0 0 0 0 0 0 0 0 0 0 0 0 0 0 0 0 0 0 0 0 0 0 0 0 0 0 0
0 0 0 0 0 0 0 0 0 0 0 0 0 0 0 0 0 0 0 0 0 0 0 0 0 0 0 0 0 0 0 0 0 0 0 0 0 0 0 0 0 0 0
0 0 0 0 0 0 0 0 0 0 0 0 0 0 0 0 0 0 0 0 0 0 0 0 0 0 0 0 0 0 0 0 0 0 0 0 0 0 0 0 0 0 0
0 0 0 0 0 0 0 0 0 0 0 0 0 0 0 0 0 0 0 0 0 0 0 0 0 0 0 0 0 0 0 0 0 0 0 0 0 0 0 0 0 0 0
0 0 0 0 0 0 0 0 0 0 0 0 0 0 0 0 0 0 0 0 0 0 0 0 0 0 0 0 0 0 0 0 0 0 0 0 0 0 0 0 0 0 0
0 0 0 0 0 0 0 0 0 0 0 0 0 0 0 0 0 0 0 0 0 0 0 0 0 0 0 0 0 0 0 0 0 0 0 0 0 0 0 0 0 0 0
0 0 0 0 0 0 0 0 0 0 0 0 0 0 0 0 0 0 0 0 0 0 0 0 0 0 0 0 0 0 0 0 0 0 0 0 0 0 0 0 0 0 0
0 0 0 0 0 0 0 0 0 0 0 0 0 0 0 0 0 0 0 0 0 0 0 0 0 0 0 0 0 0 0 0 0 0 0 0 0 0 0 0 0 0 0
0 0 0 0 0 0 0 0 0 0 0 0 0 0 0 0 0 0 0 0 0 0 0 0 0 0 0 0 0 0 0 0 0 0 0 0 0 0 0 0 0 0 0
0 0 0 0 0 0 0 0 0 0 0 0 0 0 0 0 0 0 0 0 0 0 0 0 0 0 0 0 0 0 0 0 0 0 0 0 0 0 0 0 0 0 0
0 0 0 0 0 0 0 0 0 0 0 0 0 0 0 0 0 0 0 0 0 0 0 0 0 0 0 0 0 0 0 0 0 0 0 0 0 0 0 0 0 0 0
0 0 0 0 0 0 0 0 0 0 0 0 0 0 0 0 0 0 0 0 0 0 0 0 0 0 0 0 0 0 0 0 0 0 0 0 0 0 0 0 0 0 0
0 0 0 0 0 0 0 0 0 0 0 0 0 0 0 0 0 0 0 0 0 0 0 0 0 0 0 0 0 0 0 0 0 0 0 0 0 0 0 0 0 0 0
0 0 0 0 0 0 0 0 0 0 0 0 0 0 0 0 0 0 0 0 0 0 0 0 0 0 0 0 0 0 0 0 0 0 0 0 0 0 0 0 0 0 0
0 0 0 0 0 0 0 0 0 0 0 0 0 0 0 0 0 0 0 0 0 0 0 0 0 0 0 0 0 0 0 0 0 0 0 0 0 0 0 0 0 0 0
0 1 1 0 0 0 0 0 0 0 0 0 0 0 0 0 0 0 0 0 0 0 0 0 0 0 0 0 0 0 0 0 0 0 0 0 0 0 0 0 0 0 0
1 1 1 0 0 0 0 0 0 0 0 0 0 0 0 0 0 0 0 0 0 0 0 0 0 0 0 0 0 0 0 0 0 0 0 0 0 0 0 0 0 0 0
0 1 1 0 0 0 0 0 0 0 0 0 0 0 0 0 0 0 0 0 0 0 0 0 0 0 0 0 0 0 0 0 0 0 0 0 0 0 0 0 0 0 0
Wind_Speed
2 1 2 1 1 1 1 0 1 2 3 3 3 4 4 5 4 4 3 7 8 8 7 8 7 7 5 5 5 5 5 4 4 4 4 4 4 4 4 3 3 3 3
2 2 2 2 1 1 1 1 2 2 2 2 3 3 3 3 4 4 4 5 7 7 7 8 8 8 7 6 6 5 5 5 5 4 5 4 5 5 4 4 4 3 3
2 3 2 2 1 1 2 2 3 2 2 2 3 3 3 4 3 3 4 3 3 6 7 8 9 8 8 7 6 6 6 6 6 5 5 6 6 5 5 4 4 4 4
4 3 2 2 2 3 2 2 3 2 2 2 2 2 3 2 3 3 3 3 3 3 5 8 9 9 8 7 6 6 6 6 6 5 5 5 5 5 5 5 5 4 4
3 3 2 2 3 3 3 3 3 2 2 2 2 2 2 2 2 3 3 3 3 4 3 5 8 10 9 9 8 7 7 7 7 6 5 5 5 5 5 5 5 5 4
4 3 1 3 4 3 3 3 3 2 2 1 3 3 3 3 3 4 4 4 4 4 4 4 3 6 10 12 10 10 9 8 7 7 6 5 5 5 5 5 4 5 5
4 3 3 4 4 3 2 3 2 2 2 2 3 2 2 3 3 3 3 3 4 4 4 4 4 3 4 11 12 11 10 9 8 7 6 6 5 5 5 5 5 5 5
3 3 3 3 3 2 4 3 3 2 1 2 2 1 2 3 3 3 3 3 4 4 5 6 5 5 4 4 8 12 11 10 9 8 7 6 6 6 5 5 5 5 5
4 3 3 2 2 2 2 2 2 2 1 2 2 1 1 1 0 2 3 3 3 3 4 4 6 6 7 5 5 8 11 11 11 10 9 8 7 6 6 6 5 5 5
4 3 3 3 3 3 3 2 3 2 2 1 2 2 2 2 2 1 2 3 4 5 4 5 6 6 6 5 6 9 11 11 11 11 11 10 9 8 7 7 6 6 5
3 3 3 3 3 3 3 4 4 4 2 2 1 2 2 2 1 2 1 1 2 2 3 4 4 4 4 4 4 7 9 10 10 11 11 11 10 9 8 8 7 7 6
2 2 2 2 3 2 3 3 3 3 3 3 2 2 2 2 2 1 1 1 2 1 3 3 3 3 3 4 5 8 8 8 10 11 11 11 10 9 8 8 8 8 7
1 2 2 2 2 2 3 2 3 2 2 2 2 2 2 2 2 2 2 1 1 1 2 2 2 2 3 3 3 6 6 8 9 9 10 10 10 9 9 9 9 10 9
2 2 3 3 3 3 3 3 3 3 3 3 3 2 2 3 3 2 2 2 2 1 2 2 2 2 2 2 3 4 4 7 8 9 10 10 10 10 10 10 10 10 10
2 3 3 4 3 4 3 3 3 3 3 4 3 3 2 2 3 3 2 2 2 2 1 1 1 2 2 2 3 3 3 6 7 8 10 11 11 10 10 10 11 11 11
3 3 3 4 3 3 4 4 3 2 3 3 2 3 3 2 3 2 2 3 2 2 1 1 1 1 2 3 4 3 3 6 7 7 8 9 10 10 10 10 10 10 10
3 3 3 4 4 3 3 3 2 2 3 2 2 3 3 3 2 2 3 3 3 2 2 1 2 2 3 3 2 2 1 2 3 5 6 7 8 9 9 9 10 10 10
2 3 3 4 4 3 3 3 2 2 2 2 2 2 2 2 2 2 2 3 2 2 2 2 1 2 2 2 2 2 2 2 2 3 4 5 6 7 8 8 9 9 9
3 3 3 3 3 3 2 2 2 2 2 2 3 3 3 2 2 2 2 2 2 2 2 2 1 1 2 2 2 3 3 2 1 2 2 3 4 6 7 7 7 8 7
3 3 3 3 3 3 3 2 2 2 3 3 3 3 4 4 3 3 3 3 3 2 2 2 1 1 1 2 2 2 2 2 2 3 3 2 2 3 4 5 6 6 6
3 3 3 3 3 3 3 3 2 2 2 2 2 3 4 5 7 5 4 3 3 2 2 1 1 1 1 2 2 1 2 2 2 2 2 2 1 1 1 2 4 4 5
3 4 4 4 3 3 6 7 4 2 2 2 2 3 3 4 6 6 6 5 4 2 1 1 1 1 1 1 1 1 1 2 2 2 2 3 2 2 1 0 1 2 3
3 4 3 4 4 4 5 5 5 3 2 2 1 2 2 3 4 2 3 4 4 4 2 1 1 1 1 1 1 2 2 1 2 3 1 3 2 2 2 1 1 2 2
3 3 4 4 4 3 4 3 4 2 1 2 2 2 2 3 3 3 1 2 2 3 2 1 1 0 1 1 1 1 2 2 2 2 1 2 3 3 3 2 3 3 3
3 3 4 4 4 3 3 2 2 1 1 1 2 3 3 3 4 5 3 2 2 2 3 4 2 1 2 3 3 2 2 2 3 3 2 1 3 3 3 2 3 4 4
3 3 3 3 4 3 3 2 1 0 1 1 1 3 5 4 4 5 2 2 2 2 2 1 2 2 2 2 3 1 0 1 2 3 2 1 2 3 4 3 2 2 3
Wind_Direction
75 83 102 82 82 109 121 29 43 39 45 36 39 46 57 80 82 96 94 86 75 65 59 53 51 53 57 75 86 80 76 75 81 79 79 71 66 63 55 46 38 33 29
84 68 72 69 48 57 60 56 73 58 57 47 45 46 45 69 85 103 111 88 76 66 62 60 57 55 56 67 77 77 73 67 75 72 72 66 63 61 53 41 32 32 32
63 65 61 59 46 57 58 46 53 58 77 68 58 55 57 56 69 89 109 121 102 77 69 66 60 59 59 63 71 75 70 67 69 66 65 60 56 52 45 39 30 30 33
69 62 46 29 50 53 52 60 53 45 55 58 54 53 63 64 64 75 93 113 118 101 77 71 62 60 58 52 59 70 69 66 65 63 63 58 50 43 37 34 32 26 23
63 73 44 17 54 49 43 57 58 52 58 60 79 67 56 53 47 55 62 76 80 90 95 82 69 61 58 59 60 67 68 64 60 55 54 52 46 36 31 31 30 23 18
54 67 60 53 51 53 43 55 66 54 49 50 69 69 59 56 50 41 46 54 62 76 83 90 79 64 62 64 61 63 59 54 51 48 47 47 39 29 22 21 24 22 16
39 51 53 60 54 53 48 65 59 54 41 58 65 47 44 49 60 53 46 51 52 55 64 73 69 70 65 62 55 51 49 45 44 43 40 37 31 26 24 22 21 16 7
47 53 71 77 84 69 46 49 54 41 29 60 83 79 48 19 15 58 61 62 58 49 49 57 61 62 64 61 52 45 42 38 38 39 34 28 27 29 26 18 13 9 4
44 32 54 72 81 92 80 56 70 66 20 16 60 87 115 139 358 23 52 68 62 55 50 50 57 58 65 64 54 40 39 34 34 34 32 28 25 21 18 11 7 6 2
52 34 44 56 65 73 74 46 57 58 58 19 10 22 49 107 121 74 23 58 64 61 53 51 51 53 60 67 60 45 42 36 34 32 30 27 22 18 13 9 7 5 3
65 51 43 52 61 70 71 62 50 36 46 45 33 23 18 11 35 110 112 73 61 64 72 66 63 56 58 66 67 49 41 36 34 31 28 24 20 17 14 14 11 5 1
65 67 70 66 64 70 69 67 72 61 48 43 31 39 48 32 5 53 100 121 110 84 77 68 65 62 67 68 63 53 43 40 36 30 25 21 17 15 15 17 15 9 5
77 62 60 66 64 72 75 66 66 74 71 67 53 33 33 29 26 42 69 72 96 123 81 60 62 61 66 75 66 48 48 45 39 31 25 21 21 23 27 26 22 16 14
121 106 77 68 59 59 67 61 61 52 55 63 69 62 41 26 32 39 56 72 58 48 65 62 39 52 54 72 53 47 62 54 45 37 31 31 33 32 34 32 27 22 25
115 107 99 89 70 63 62 66 66 56 54 40 38 47 53 45 33 24 26 52 100 81 41 47 37 34 45 65 41 66 73 63 58 47 39 38 40 40 39 36 32 28 29
101 96 100 102 92 78 70 60 64 57 80 67 47 43 42 37 32 25 22 23 47 94 90 28 47 77 45 58 57 69 90 83 71 57 47 43 43 43 41 36 33 30 29
120 122 120 111 103 94 91 81 73 48 66 73 67 76 62 48 35 17 27 32 31 61 93 30 36 42 48 43 27 46 97 91 77 71 58 50 47 45 42 38 36 34 31
125 124 119 112 108 102 102 108 103 81 70 64 60 77 83 74 51 27 31 32 32 39 87 83 24 21 29 33 29 23 31 67 89 90 76 56 48 46 42 38 36 32 31
132 131 121 116 114 114 110 105 107 95 74 60 53 55 50 61 47 35 42 34 29 37 64 93 51 20 14 13 28 16 19 12 24 85 79 51 41 42 37 32 29 26 29
133 129 117 111 107 91 77 70 81 89 88 78 63 57 50 55 45 36 39 28 35 37 42 67 69 26 13 357 30 11 359 353 357 9 18 25 32 33 25 21 21 23 27
135 123 108 95 88 81 60 52 34 55 85 99 89 85 81 81 69 62 55 34 33 32 32 56 45 33 9 6 356 347 356 331 341 360 356 344 351 358 348 1 10 19 21
113 108 107 103 88 76 67 56 38 14 40 78 102 109 114 102 86 77 68 58 54 54 35 48 35 33 334 339 344 357 358 359 330 325 352 322 344 331 300 307 11 20 9
116 113 113 106 99 92 82 61 31 7 24 29 68 102 94 88 89 87 70 53 36 31 43 100 67 337 328 328 353 343 329 310 275 281 343 312 324 316 300 318 322 338 335
138 136 126 118 114 111 96 70 18 354 23 26 37 69 96 89 61 53 72 62 44 21 14 65 91 49 24 340 329 292 282 308 308 319 20 309 305 301 307 293 282 285 293
139 138 136 135 128 127 126 90 16 352 70 48 48 49 70 82 51 40 58 58 51 4 32 59 46 19 347 340 351 17 359 357 326 314 331 328 304 307 301 290 287 272 283
138 131 128 132 133 136 142 120 43 360 120 92 68 72 73 79 59 47 56 57 28 336 6 9 345 316 315 330 345 35 51 335 312 306 311 335 313 331 320 302 304 297 288